RH
28 29 29 31 31 33 32 32 38 34 30 32 32 35 38 35 33 33 33 34 35 37 37 38 37 35 36 36 35 37 40 44 47 47 52 51 42 36 28 26 24 24 23 23 26 25 27 29 29 30 31 31 31 31 31 32 32 33 34 34 32 31 31 29 28 27 25 24 24 25 26 27 27 27 26 26 22 17 22 27 22 20 23 20 17 17 18 18 19 20 22 24 26 27 29 30 31
28 29 31 31 30 32 32 29 34 31 26 28 30 35 37 34 34 34 35 36 37 39 40 39 37 36 38 36 35 37 40 45 47 51 56 48 39 36 28 26 25 24 23 23 25 25 27 28 29 30 30 31 31 32 32 32 32 33 35 34 32 30 31 29 26 22 21 20 20 20 21 24 25 27 27 29 26 20 23 27 24 23 24 20 17 17 18 18 19 20 23 25 26 27 29 31 32
30 30 32 33 32 32 31 29 28 26 25 26 30 33 33 35 36 34 33 35 38 40 41 40 37 36 36 35 35 37 41 45 48 53 56 50 43 35 28 27 26 24 23 24 25 26 30 30 28 30 30 31 32 33 32 33 33 34 35 34 31 31 30 28 24 19 17 17 17 16 19 23 24 26 28 30 30 24 24 27 25 24 24 20 17 17 17 18 20 21 24 25 26 28 30 31 32
34 33 33 33 33 31 29 29 28 25 24 27 34 32 29 32 31 30 31 35 39 41 42 40 38 36 34 36 37 38 41 45 49 53 55 55 47 33 29 28 26 25 23 24 25 26 30 29 28 30 31 31 32 33 33 34 34 36 35 33 33 31 29 27 23 19 17 17 17 16 19 24 25 28 30 33 34 28 26 25 24 23 23 20 16 17 17 19 21 22 24 26 28 29 30 32 33
37 37 37 34 32 31 29 29 28 26 24 28 35 31 28 29 28 31 33 38 41 41 41 39 39 37 35 36 37 40 43 45 48 50 52 56 46 33 29 28 27 27 25 25 27 27 28 28 29 30 31 32 32 33 34 34 35 36 34 34 34 31 30 27 24 20 18 18 17 18 21 23 27 32 33 35 35 29 25 24 23 23 23 19 16 18 18 19 21 23 25 27 28 30 31 32 33
37 40 41 37 33 30 28 27 26 25 25 28 34 31 28 29 29 33 36 40 42 41 41 39 40 38 35 37 37 41 45 45 48 48 50 53 44 34 31 29 30 30 29 29 29 28 29 29 30 31 31 32 32 33 34 35 36 37 35 34 34 32 30 27 24 22 19 18 18 18 20 21 26 32 34 36 34 28 24 22 22 23 22 18 17 18 18 20 21 23 25 27 30 31 32 33 33
38 40 43 41 36 31 29 28 26 27 27 27 31 29 27 29 31 35 38 40 41 42 41 40 40 38 38 39 39 42 44 45 50 49 47 49 42 35 33 31 32 32 33 33 31 28 28 30 30 32 32 31 33 33 34 35 37 37 36 34 35 32 30 28 24 22 20 19 18 18 18 19 23 29 33 36 32 26 23 21 21 22 20 17 18 19 20 21 22 24 26 29 31 32 33 33 34
40 41 42 42 41 35 30 29 27 28 30 28 28 28 27 29 31 37 39 39 41 42 41 41 39 40 43 41 41 44 44 45 49 47 43 45 39 34 34 34 33 33 34 35 33 29 29 30 30 31 31 32 33 33 34 35 36 37 36 35 36 34 31 28 23 22 22 19 19 19 19 19 22 26 32 35 32 25 23 23 21 19 18 18 19 20 21 23 24 26 28 30 32 33 34 35 35
42 41 41 41 43 40 33 29 28 27 28 28 28 29 28 30 31 36 38 38 41 42 41 42 40 42 45 43 43 47 48 47 47 44 42 43 36 33 35 35 34 34 35 36 34 30 30 30 30 31 31 32 33 34 34 35 37 37 37 36 36 35 32 28 23 22 22 21 20 21 21 22 23 27 33 36 33 26 24 24 21 18 18 18 19 21 23 25 26 27 28 31 34 35 36 36 37
43 41 40 41 42 42 38 33 30 28 27 27 29 30 30 31 34 36 37 39 41 42 43 42 42 42 45 45 44 48 50 48 46 46 44 41 35 35 37 35 35 36 39 40 36 31 30 31 31 32 32 33 33 34 34 35 38 38 38 37 37 36 33 29 25 21 22 22 21 23 26 28 27 28 33 35 33 26 24 23 20 19 19 18 19 21 24 25 26 27 28 31 34 36 36 36 36
44 41 38 40 40 40 40 38 34 31 29 28 29 30 32 33 35 37 38 41 43 45 45 44 43 43 44 45 47 50 49 50 52 50 46 43 41 38 36 39 40 40 42 42 39 34 31 32 33 33 33 33 33 34 35 35 37 38 38 38 38 37 34 29 26 22 22 22 23 26 29 29 30 32 34 35 34 27 24 23 20 21 20 19 20 21 23 24 26 26 27 29 32 34 36 35 34
43 42 38 39 40 39 40 41 39 35 30 28 29 30 31 32 35 39 40 41 45 49 50 47 45 45 46 46 51 53 52 57 56 52 48 45 46 41 36 41 43 41 42 41 40 38 32 32 34 35 35 34 35 35 35 36 37 38 38 40 40 39 35 30 28 24 22 23 24 27 28 29 33 38 36 34 35 30 26 24 22 22 21 21 20 21 22 23 24 25 27 28 30 32 34 35 34
43 42 40 39 40 40 39 40 41 39 33 28 29 30 31 33 35 38 41 44 47 50 54 51 49 47 48 50 53 54 57 59 53 50 49 47 48 45 40 41 42 42 45 43 41 39 34 34 35 36 37 36 36 37 37 37 38 39 39 41 41 41 37 32 30 26 23 23 23 23 26 30 34 38 37 35 38 35 29 26 25 25 24 23 22 22 23 23 23 25 27 29 30 31 32 33 33
45 45 44 43 41 40 39 38 38 39 38 33 31 31 32 34 35 35 37 42 46 49 53 54 53 50 49 52 52 54 57 53 49 46 45 48 48 45 44 43 42 42 45 44 42 41 38 37 38 39 40 40 38 39 42 40 39 40 39 40 42 42 40 35 32 28 24 24 24 22 23 28 33 37 37 37 39 38 32 27 27 28 28 26 25 25 25 25 25 25 27 29 30 30 29 30 32
46 49 47 47 44 42 40 38 37 37 39 39 36 32 33 34 35 34 35 38 43 49 52 53 55 53 51 51 50 53 53 50 47 42 40 43 41 42 45 43 40 38 39 40 38 42 45 45 47 46 44 46 43 42 48 47 42 41 41 41 42 42 43 39 33 29 25 23 24 23 22 25 30 35 36 37 39 37 34 30 29 29 29 28 27 27 28 28 27 27 28 29 30 30 30 32 34
43 47 45 43 41 41 40 38 37 36 37 41 39 34 33 35 35 36 38 37 41 48 52 55 57 56 53 53 53 51 49 50 48 41 39 40 39 43 46 44 40 37 37 37 37 45 53 53 55 54 50 51 49 46 51 52 46 43 43 42 41 43 46 43 35 30 25 24 24 24 22 22 28 33 33 37 39 36 34 33 31 30 29 28 27 27 28 29 29 29 29 30 30 32 35 36 36
46 46 44 40 37 37 39 39 38 36 36 39 40 39 36 35 36 39 40 38 40 44 51 56 59 60 58 58 58 54 50 51 49 44 42 42 45 49 49 50 47 42 40 40 42 50 58 57 57 57 52 53 53 51 52 52 49 46 46 46 44 45 49 47 39 31 25 24 24 24 23 21 29 35 34 39 38 35 34 32 31 30 30 29 28 28 28 28 29 30 30 30 31 34 38 39 39
50 48 46 42 37 35 37 40 39 37 39 37 37 41 41 38 39 41 40 39 40 41 48 55 59 63 64 62 59 56 54 52 50 48 45 45 49 52 53 54 52 47 43 45 49 53 57 57 55 55 54 54 55 54 53 53 51 50 51 50 49 48 52 51 45 37 29 26 23 22 23 20 27 33 36 40 36 33 32 28 29 30 30 30 30 31 30 29 30 30 30 31 34 36 39 41 41
50 48 47 44 39 38 39 41 40 38 40 39 36 39 42 41 41 42 41 42 42 40 45 51 55 60 63 63 59 57 57 56 54 53 51 50 53 55 56 57 55 50 47 48 52 54 55 55 54 54 54 54 55 54 53 53 51 51 52 52 52 52 54 54 52 46 38 33 25 22 24 21 24 30 35 38 35 33 31 27 27 28 29 30 30 31 32 31 31 30 30 32 36 38 44 49 48
48 49 47 42 41 41 40 41 41 40 41 40 38 39 41 42 44 44 42 44 45 43 45 49 52 55 59 63 62 60 59 57 57 56 55 53 55 55 54 57 56 50 48 49 52 54 54 54 53 53 53 54 54 54 53 54 53 53 53 53 53 53 54 56 55 49 43 38 28 27 31 23 20 26 30 34 36 36 33 27 25 26 28 28 30 31 33 33 32 31 31 32 38 42 51 56 55
44 47 43 40 42 43 42 43 45 45 43 42 43 44 42 42 45 46 46 44 43 45 47 49 51 52 56 61 63 60 58 57 56 55 55 51 50 51 54 56 52 49 50 50 52 53 52 53 53 52 52 53 54 53 53 54 54 54 53 54 53 53 53 55 56 49 41 37 28 26 28 21 18 21 23 28 36 40 38 33 29 28 29 29 30 32 36 36 34 37 35 35 43 50 55 56 55
41 41 35 36 41 42 42 44 49 49 46 46 48 49 46 45 46 46 47 44 43 48 50 48 49 50 53 58 59 59 60 58 54 52 54 51 47 47 53 54 49 49 52 51 49 48 49 51 51 50 51 52 53 53 53 53 54 54 54 54 53 53 54 55 55 46 34 28 22 19 19 18 19 19 19 22 29 33 36 38 36 35 36 35 31 34 40 39 40 46 45 45 51 55 56 54 53
39 36 31 33 36 39 41 42 46 47 48 49 51 52 50 51 49 44 45 45 44 48 49 47 49 50 54 58 55 56 61 58 51 49 50 50 47 47 51 51 48 48 50 48 44 43 47 50 50 50 50 51 53 53 53 53 53 53 54 54 53 53 55 55 52 39 26 21 18 16 17 18 19 20 20 20 23 22 25 33 35 36 41 41 36 38 42 41 46 50 49 50 53 55 56 55 53
33 31 31 34 37 40 39 38 41 42 43 45 48 51 50 49 48 46 44 44 44 46 46 45 48 52 57 57 52 53 58 54 50 48 48 50 50 51 51 50 48 48 48 47 45 43 46 50 51 51 51 52 53 53 53 51 52 52 53 53 53 54 54 55 50 34 23 20 18 17 18 18 18 19 20 19 19 18 19 23 26 28 36 42 41 43 48 48 49 51 49 48 51 55 57 56 55
28 28 30 34 36 37 35 35 37 36 37 39 42 46 46 43 45 49 47 43 43 44 45 43 46 54 57 53 49 51 54 53 53 51 51 53 52 52 52 51 50 50 50 49 48 44 44 49 52 52 52 53 53 53 52 51 51 51 51 52 54 55 55 55 48 31 23 21 18 18 18 18 19 19 20 20 19 18 19 20 21 24 30 39 43 46 51 51 50 51 49 48 53 57 57 57 56
26 27 31 32 30 31 33 35 34 32 34 35 37 39 41 42 45 49 47 44 44 42 43 41 43 52 56 54 51 51 52 55 56 54 52 52 52 51 51 51 51 51 51 50 50 47 44 45 49 52 52 53 53 52 51 50 50 50 51 52 54 54 54 54 43 28 24 22 20 20 20 20 20 21 22 22 20 19 19 20 22 25 31 38 43 45 48 50 51 53 51 53 57 58 58 59 58
25 26 28 28 27 26 29 33 32 32 34 34 34 36 38 43 45 43 41 44 46 45 43 39 41 47 50 54 55 52 52 54 55 54 51 50 50 49 49 51 51 50 50 51 51 49 48 45 45 48 51 53 53 51 49 49 50 51 50 50 52 53 53 51 39 28 25 24 22 23 23 23 24 25 26 25 23 22 22 23 25 28 33 39 43 45 46 47 51 53 54 57 60 61 64 63 63
22 23 23 24 25 26 28 30 31 33 33 33 34 36 39 43 41 35 34 39 44 47 47 41 41 43 46 54 55 51 52 51 52 53 52 50 49 47 47 49 50 50 50 51 52 52 52 49 44 44 48 52 52 51 50 49 51 51 50 49 50 51 51 48 38 30 27 25 26 26 26 28 28 29 30 29 28 27 27 29 31 32 35 38 42 44 46 46 47 51 54 57 60 63 66 65 70
19 20 21 22 24 27 28 28 31 32 32 33 36 40 41 38 32 29 33 38 40 45 49 45 42 40 45 54 54 50 51 50 51 52 52 50 47 46 46 46 47 49 49 51 52 53 54 52 48 48 50 52 51 51 51 50 50 51 50 49 49 51 50 45 37 30 28 27 27 27 29 30 31 33 32 32 32 32 33 36 38 38 40 42 45 46 46 46 46 49 52 54 58 61 65 67 74
21 20 21 22 22 24 25 27 30 31 31 33 38 42 37 29 26 28 34 38 38 40 46 47 44 42 42 49 52 47 47 50 52 52 51 50 48 47 48 47 46 47 48 50 50 50 53 52 50 52 54 54 50 49 51 50 50 50 50 50 50 50 48 43 36 29 27 27 26 27 31 32 33 35 34 34 34 36 38 39 41 42 45 50 54 56 55 53 52 54 55 58 61 63 67 71 75
26 25 23 22 21 21 21 24 27 29 30 32 37 38 29 23 23 27 34 38 38 38 42 45 45 45 42 43 48 47 44 48 52 52 51 50 49 48 49 48 47 47 47 48 49 47 49 48 49 50 52 52 49 48 50 50 49 50 50 50 49 47 46 43 36 29 26 26 26 30 33 33 34 36 36 35 36 39 39 39 41 44 47 53 60 63 63 62 60 61 61 63 65 66 69 71 73
28 30 27 24 22 20 20 21 23 26 30 33 36 33 24 21 22 28 34 36 37 38 39 40 43 46 44 43 48 48 43 45 50 52 53 52 50 49 49 48 47 47 47 47 48 47 47 46 47 50 51 49 47 47 49 49 47 48 49 49 47 43 43 43 37 29 26 25 28 35 36 33 37 40 38 37 37 38 40 41 43 45 47 53 60 64 64 63 63 66 66 66 67 68 69 70 73
25 29 30 29 26 23 21 23 23 23 28 31 32 27 20 19 22 30 34 32 35 38 37 38 39 42 45 44 47 47 44 44 47 50 52 53 51 50 49 46 46 48 48 48 48 48 47 47 49 53 52 48 47 47 49 50 47 44 46 47 46 42 42 44 39 31 26 25 29 37 40 37 42 45 41 38 37 38 42 44 45 45 48 53 59 62 63 65 66 68 68 67 67 69 69 70 74
21 24 27 30 32 32 27 26 27 24 24 26 25 22 18 18 23 30 34 30 31 35 36 36 35 38 42 43 45 47 47 47 47 47 51 53 52 51 49 47 48 50 52 50 49 49 47 47 49 53 53 49 49 48 49 51 48 44 43 45 44 43 43 44 41 34 27 26 28 34 40 42 45 47 46 42 39 39 42 45 45 45 48 53 57 60 64 66 68 69 69 67 66 69 70 71 75
22 25 28 30 33 36 32 29 32 28 22 21 22 21 18 18 24 31 32 31 31 31 34 35 34 36 38 40 41 44 47 47 47 47 48 51 52 52 50 48 48 50 52 53 54 51 47 47 50 54 53 52 52 51 51 51 50 48 45 45 45 46 46 44 43 38 31 28 28 30 38 45 46 48 48 44 41 41 42 44 45 45 47 51 54 58 63 66 69 71 69 68 66 68 70 72 74
25 26 29 31 31 33 33 32 35 33 27 23 21 20 18 18 25 31 32 32 32 30 31 34 34 34 35 38 38 40 46 46 47 47 45 47 50 51 51 50 49 49 50 55 57 53 49 49 52 53 53 54 54 52 51 51 52 51 47 47 49 50 49 47 46 44 36 32 29 29 38 46 47 48 48 43 42 43 43 43 43 43 45 50 52 56 62 66 69 71 70 69 68 67 69 71 71
24 23 22 23 25 30 32 34 37 35 31 26 22 20 19 21 25 28 30 33 31 26 28 31 32 32 32 36 37 39 43 45 47 49 46 45 46 48 50 50 51 50 49 53 56 54 50 50 52 52 52 54 53 52 51 50 50 50 48 48 50 52 51 49 51 49 43 37 32 30 37 43 44 45 46 44 43 45 45 43 42 42 45 49 51 55 61 66 70 71 70 70 69 66 66 67 66
23 21 19 18 20 24 27 31 35 36 33 29 26 24 22 23 25 25 27 31 28 24 25 28 29 30 31 34 35 37 42 44 46 50 49 45 44 46 47 48 50 50 50 52 53 53 52 51 50 50 50 51 51 51 51 51 49 48 48 48 48 52 53 51 52 52 47 42 36 33 34 38 40 41 43 45 45 45 45 45 43 42 44 48 50 54 61 67 71 71 69 70 68 65 66 65 63
24 22 21 20 19 20 24 26 28 30 32 31 29 30 28 27 26 25 26 27 25 24 24 25 27 29 30 32 34 35 39 43 45 48 50 45 44 46 44 46 49 49 52 55 54 53 54 53 50 49 48 48 50 50 52 54 50 47 45 45 48 53 54 52 52 54 52 46 41 37 35 38 41 41 44 46 46 46 45 45 44 42 43 47 49 54 60 66 72 72 69 69 68 65 65 65 63
24 25 24 23 21 21 21 21 23 25 29 32 33 35 35 33 28 25 25 23 24 24 23 24 25 26 27 29 31 34 37 40 43 47 48 45 44 45 43 44 46 48 53 57 55 52 52 54 52 50 48 47 48 49 52 54 50 46 43 42 47 53 55 54 53 54 56 51 45 41 38 40 45 45 48 51 48 45 44 46 45 42 42 44 48 53 57 64 71 71 69 69 67 66 66 65 65
27 27 26 26 25 25 23 21 24 28 29 29 32 35 36 33 30 27 25 23 22 23 21 22 23 23 25 27 29 32 35 37 40 43 46 43 41 43 42 41 43 45 49 52 53 51 50 50 51 53 52 49 49 49 52 54 52 49 46 43 48 54 56 54 54 54 57 54 46 41 39 42 47 49 51 52 49 45 44 46 44 42 42 42 47 53 56 62 70 70 68 68 65 66 68 66 65
28 28 29 28 26 27 26 22 23 25 24 22 26 34 34 30 29 27 25 23 22 21 20 20 20 20 22 24 26 29 32 36 37 40 44 43 39 40 40 39 39 42 44 48 52 52 51 50 52 54 54 52 51 50 50 52 53 53 48 44 49 56 56 54 55 55 55 54 46 41 42 44 48 50 50 51 50 46 45 46 43 43 44 43 47 53 56 63 69 70 69 68 67 67 67 68 68
27 29 30 29 28 27 27 24 22 22 20 17 21 28 30 30 30 28 26 25 23 21 19 18 19 19 20 21 23 26 29 33 35 36 40 43 41 39 40 39 38 40 43 47 51 53 53 53 54 54 54 54 53 51 49 50 53 54 50 46 48 52 55 56 56 55 53 52 48 44 44 46 48 50 50 51 50 47 45 44 43 44 45 45 50 55 58 64 68 70 69 68 68 68 68 69 70
29 32 30 28 29 29 29 28 27 23 19 17 20 25 27 28 29 29 30 29 26 24 22 19 18 18 19 19 20 22 25 29 32 34 36 41 43 39 38 38 39 41 45 47 49 51 52 53 55 55 54 54 53 52 51 50 51 52 51 50 48 46 49 54 55 53 51 51 51 49 47 48 50 49 49 51 51 48 46 42 41 45 46 48 55 60 62 66 69 69 69 68 67 68 69 69 71
31 33 27 25 26 29 32 34 33 28 24 21 21 23 24 23 23 28 34 34 30 28 24 21 18 17 18 19 20 21 23 26 29 33 35 39 44 41 36 37 38 42 46 48 47 48 50 52 56 57 55 53 53 53 54 53 52 50 49 50 48 44 46 51 53 51 51 53 53 52 52 52 51 50 51 52 50 49 45 40 41 46 47 50 61 66 65 67 69 69 69 67 66 68 70 68 70
31 30 25 24 25 26 30 36 37 35 32 27 22 20 20 18 16 21 31 35 32 29 25 22 21 20 18 18 20 21 22 24 26 31 33 36 42 41 36 35 37 40 45 48 50 50 50 52 55 57 57 54 52 53 54 56 56 52 49 47 46 46 47 51 53 52 52 54 53 52 53 55 53 50 50 50 49 50 46 40 42 47 47 51 64 71 69 67 68 69 68 66 64 67 68 68 68
28 28 28 30 29 28 30 33 38 40 39 32 25 21 18 16 16 16 22 29 29 26 25 24 23 22 21 19 19 21 22 22 23 26 29 34 41 42 39 35 35 38 41 46 52 52 50 52 55 56 57 56 54 55 55 56 59 55 50 47 45 46 49 50 52 53 53 53 52 51 53 55 53 50 48 48 49 49 47 41 42 47 48 51 62 70 70 67 67 68 66 63 64 66 67 67 68
27 28 32 36 33 32 33 33 36 42 41 33 26 24 21 18 17 14 16 23 26 23 23 26 25 23 22 21 20 20 21 21 21 24 26 31 38 42 42 39 38 37 39 43 47 48 47 51 55 55 55 56 56 56 55 56 58 55 52 50 45 47 50 49 49 52 54 53 52 52 52 53 53 49 49 50 48 47 46 42 43 48 49 52 61 69 69 68 67 66 63 62 64 66 67 66 68
27 26 34 39 36 38 42 40 38 40 36 31 29 28 26 22 19 18 17 20 22 20 20 24 26 26 25 23 22 20 20 20 21 22 24 26 31 36 41 42 40 36 37 40 43 43 44 46 49 50 51 54 56 55 55 56 56 53 54 52 48 49 51 48 48 53 55 53 52 52 52 53 52 49 51 52 48 46 44 43 45 48 49 53 60 66 68 66 63 62 61 62 64 66 68 67 68
36 33 34 37 35 41 47 45 43 40 32 30 33 33 31 25 21 20 16 15 15 14 15 18 22 26 26 25 25 23 20 19 19 20 22 23 27 31 37 40 37 33 35 38 39 39 40 40 42 44 48 53 56 56 55 56 54 53 55 54 51 51 51 48 50 56 57 55 54 54 52 52 51 50 52 52 49 45 42 43 45 47 48 53 61 67 66 62 59 59 61 63 66 68 68 68 68
46 42 37 35 33 36 41 40 40 36 30 32 38 39 35 27 23 22 16 12 12 10 10 12 15 20 23 26 27 25 22 19 18 18 19 21 23 27 33 36 34 30 31 35 36 36 37 38 40 44 48 50 52 55 57 57 53 52 55 56 53 53 52 49 50 55 57 56 56 55 52 51 51 51 54 53 49 45 42 42 44 45 47 53 62 68 65 58 55 58 61 64 66 68 67 67 68
42 40 37 34 30 33 37 37 39 43 43 43 43 41 34 26 25 26 22 16 12 11 10 9 11 13 17 22 24 25 23 21 20 18 17 18 20 24 29 33 32 29 28 30 33 34 34 37 39 43 46 47 48 52 56 56 53 53 55 55 54 55 54 50 48 51 54 54 57 57 52 49 49 51 55 55 51 45 41 41 42 44 48 50 57 63 60 56 54 55 60 63 65 65 63 62 65
44 43 39 35 32 34 37 36 36 41 45 43 39 39 36 30 28 26 24 20 15 12 10 9 10 11 13 17 21 23 24 23 22 20 18 17 18 20 24 29 31 29 27 27 30 31 31 33 36 37 40 45 48 49 52 57 57 55 53 53 56 58 55 50 47 48 50 51 56 58 53 50 49 51 54 55 53 46 40 40 41 45 48 49 52 57 58 56 54 55 59 62 64 65 61 60 60
48 47 44 41 38 37 37 36 34 33 35 34 30 31 30 29 29 26 23 20 16 13 12 10 10 11 12 14 17 21 23 25 24 22 21 18 17 18 20 24 29 29 26 24 27 30 29 31 32 33 37 43 47 46 46 52 55 53 53 55 57 57 56 53 48 47 48 49 53 55 54 52 51 50 53 54 54 47 40 40 42 45 48 48 51 56 57 56 55 56 58 62 65 65 63 61 59
50 49 46 44 44 43 40 42 41 35 32 30 28 26 24 23 26 27 28 24 19 15 12 12 14 14 14 13 14 17 20 23 25 24 23 20 18 19 18 19 23 27 26 23 24 27 29 29 30 31 37 43 46 43 41 47 51 51 56 59 57 58 60 57 52 50 47 46 51 53 53 54 52 49 50 53 53 48 42 41 42 44 46 49 52 55 56 56 56 56 59 62 65 65 64 62 59
57 56 52 49 47 46 44 45 44 38 34 35 34 29 26 25 23 24 30 31 25 21 19 19 21 20 18 16 14 16 20 24 26 26 25 24 21 20 20 19 19 23 26 25 23 23 25 28 28 30 36 41 42 39 41 47 50 49 55 58 57 59 62 59 56 54 49 47 53 54 53 55 53 48 49 52 51 47 44 42 43 44 46 48 52 54 56 56 56 56 58 62 64 65 64 62 59
59 61 60 58 53 48 45 44 42 38 37 39 40 35 30 29 26 22 26 30 26 25 25 24 22 22 22 20 17 17 19 23 26 27 28 28 27 23 21 20 19 21 25 27 27 25 24 24 25 29 35 38 38 37 40 45 47 49 54 57 57 59 61 60 58 55 52 50 51 52 53 55 53 49 49 51 49 46 45 43 43 44 46 48 51 53 55 56 56 56 58 61 64 64 63 61 58
49 55 59 60 57 53 50 47 40 37 36 35 38 40 33 30 32 30 25 24 23 24 26 23 21 23 24 22 19 16 17 19 23 27 28 28 28 26 22 19 19 20 23 27 29 31 29 25 23 28 35 37 37 38 39 41 45 50 52 53 56 58 60 60 56 55 56 52 47 49 53 55 54 51 49 48 47 45 45 44 44 45 45 47 49 51 54 55 56 57 58 61 63 63 62 60 57